GW4614 Weather Reports


Display with metric or nautical units.
time (UTC)temp
F
wind
direction
speed
MPH
gust
MPH
rain 1hr
in
rain 24hr
in
rain mn
in
humidity
%
barometer
mb
20260507220505 61 278 3.0 4.0 0.00 0.00 0.00 42 1009.7
20260507220002 61 273 8.0 11.0 0.00 0.00 0.00 41 1009.6
20260507215458 62 338 2.0 3.0 0.00 0.00 0.00 39 1009.8
20260507214956 62 298 6.0 9.0 0.00 0.00 0.00 37 1009.5
20260507214453 63 22 2.0 4.0 0.00 0.00 0.00 45 1009.6
20260507213949 61 35 0.0 0.0 0.00 0.00 0.00 43 1009.5
20260507213445 61 84 2.0 4.0 0.00 0.00 0.00 38 1009.4
20260507212943 62 337 6.0 8.0 0.00 0.00 0.00 43 1009.4
20260507212438 62 337 6.0 8.0 0.00 0.00 0.00 43 1009.6
20260507211936 61 313 9.0 11.0 0.00 0.00 0.00 44 1009.6
20260507211432 61 345 6.0 7.0 0.00 0.00 0.00 41 1009.4
20260507210929 62 354 6.0 9.0 0.00 0.00 0.00 39 1009.3
20260507210426 63 338 10.0 11.0 0.00 0.00 0.00 40 1009.4
20260507205923 62 171 1.0 1.0 0.00 0.00 0.00 44 1009.3
20260507205420 62 331 4.0 6.0 0.00 0.00 0.00 43 1009.4
20260507204916 63 306 3.0 4.0 0.00 0.00 0.00 40 1009.3
20260507204412 63 302 6.0 7.0 0.00 0.00 0.00 39 1009.5
20260507203910 62 300 5.0 7.0 0.00 0.00 0.00 41 1009.5
20260507203408 61 316 6.0 8.0 0.00 0.00 0.00 41 1009.2
20260507202904 62 300 8.0 13.0 0.00 0.00 0.00 41 1009.4
20260507202400 64 314 8.0 10.0 0.00 0.00 0.00 41 1009.5
20260507201856 64 282 5.0 7.0 0.00 0.00 0.00 44 1009.7
20260507201351 63 316 11.0 15.0 0.00 0.00 0.00 42 1009.5
20260507200848 63 329 10.0 13.0 0.00 0.00 0.00 42 1009.3
20260507200344 63 22 3.0 4.0 0.00 0.00 0.00 42 1009.4
20260507195840 64 161 2.0 3.0 0.00 0.00 0.00 45 1009.4
20260507195338 62 317 2.0 3.0 0.00 0.00 0.00 47 1009.3
20260507194835 62 302 5.0 9.0 0.00 0.00 0.00 45 1009.4
20260507194331 62 304 4.0 6.0 0.00 0.00 0.00 46 1009.5
20260507193828 61 168 1.0 1.0 0.00 0.00 0.00 42 1009.7
20260507193325 61 44 2.0 3.0 0.00 0.00 0.00 44 1009.7
20260507192820 62 316 3.0 7.0 0.00 0.00 0.00 49 1009.7
20260507192318 63 321 1.0 7.0 0.00 0.00 0.00 44 1009.7
20260507191814 64 72 1.0 4.0 0.00 0.00 0.00 48 1009.6
20260507191310 64 295 0.0 2.0 0.00 0.00 0.00 45 1009.9
20260507190807 64 321 1.0 3.0 0.00 0.00 0.00 42 1009.9
20260507190306 64 312 2.0 8.0 0.00 0.00 0.00 51 1009.8
20260507185804 64 316 3.0 3.0 0.00 0.00 0.00 44 1009.7
20260507185300 61 198 3.0 6.0 0.00 0.00 0.00 48 1010.0
20260507184758 62 327 2.0 3.0 0.00 0.00 0.00 48 1010.0
20260507184256 65 322 4.0 6.0 0.00 0.00 0.00 47 1010.1
20260507183752 64 90 2.0 6.0 0.00 0.00 0.00 44 1010.2
20260507183250 63 291 6.0 13.0 0.00 0.00 0.00 48 1010.2
20260507182747 64 299 5.0 6.0 0.00 0.00 0.00 46 1010.1
20260507182242 64 108 1.0 1.0 0.00 0.00 0.00 47 1010.1
20260507181739 64 310 0.0 2.0 0.00 0.00 0.00 51 1010.2
20260507181235 62 59 1.0 2.0 0.00 0.00 0.00 48 1009.9
20260507180732 59 66 2.0 2.0 0.00 0.00 0.00 52 1010.3
20260507180229 58 51 5.0 7.0 0.00 0.00 0.00 54 1010.3
20260507175724 58 66 5.0 6.0 0.00 0.00 0.00 54 1010.4
20260507175221 58 80 5.0 7.0 0.00 0.00 0.00 54 1010.6
20260507174719 59 321 7.0 8.0 0.00 0.00 0.00 55 1010.5
20260507174217 60 356 4.0 6.0 0.00 0.00 0.00 54 1010.7
20260507173715 60 346 0.0 1.0 0.00 0.00 0.00 53 1010.7
20260507173211 61 340 3.0 4.0 0.00 0.00 0.00 53 1011.1
20260507172708 0 0.0 0.0 0.00 0.00 0.00 1011.3
20260507172204 59 296 6.0 8.0 0.00 0.00 0.00 54 1011.0
20260507171658 59 296 6.0 8.0 0.00 0.00 0.00 54 1011.1
20260507171155 59 355 4.0 4.0 0.00 0.00 0.00 57 1011.3
20260507170652 60 346 8.0 9.0 0.00 0.00 0.00 54 1011.1
20260507170150 60 346 8.0 9.0 0.00 0.00 0.00 54 1011.3
20260507165645 61 302 2.0 3.0 0.00 0.00 0.00 52 1011.2
20260507165142 61 302 2.0 3.0 0.00 0.00 0.00 52 1011.4
20260507164637 60 333 7.0 8.0 0.00 0.00 0.00 60 1011.4
20260507164135 0 0.0 0.0 0.00 0.00 0.00 1011.7
20260507163632 0 0.0 0.0 0.00 0.00 0.00 1011.6
20260507163130 58 292 2.0 2.0 0.00 0.00 0.00 61 1011.8
20260507162626 58 292 2.0 2.0 0.00 0.00 0.00 61 1011.8
20260507162122 58 156 1.0 1.0 0.00 0.00 0.00 62 1012.1
20260507161618 56 337 6.0 7.0 0.00 0.00 0.00 61 1012.1
20260507161115 57 300 9.0 10.0 0.00 0.00 0.00 59 1012.0
20260507160611 0 0.0 0.0 0.00 0.00 0.00 1011.9
20260507160108 55 283 6.0 7.0 0.00 0.00 0.00 62 1012.4
20260507155603 55 283 6.0 7.0 0.00 0.00 0.00 62 1012.4
20260507155100 55 48 4.0 4.0 0.00 0.00 0.00 61 1012.3
20260507154557 55 348 5.0 6.0 0.00 0.00 0.00 65 1012.3
20260507154054 56 351 5.0 7.0 0.00 0.00 0.00 61 1012.3
20260507153551 57 300 4.0 4.0 0.00 0.00 0.00 58 1012.4
20260507153047 57 300 4.0 4.0 0.00 0.00 0.00 58 1012.6
20260507152543 0 0.0 0.0 0.00 0.00 0.00 1012.5
20260507152040 55 319 7.0 9.0 0.00 0.00 0.00 59 1012.6
20260507151536 55 319 7.0 9.0 0.00 0.00 0.00 59 1012.9
20260507151033 55 314 9.0 11.0 0.00 0.00 0.00 59 1012.9
20260507150530 55 314 9.0 11.0 0.00 0.00 0.00 59 1013.0
20260507150027 55 320 4.0 6.0 0.00 0.00 0.00 62 1012.7
20260507145522 55 233 3.0 4.0 0.00 0.00 0.00 59 1012.9
20260507145020 54 354 6.0 8.0 0.00 0.00 0.00 58 1013.2
20260507144516 54 274 4.0 6.0 0.00 0.00 0.00 63 1013.2
20260507144014 55 282 1.0 2.0 0.00 0.00 0.00 62 1013.1
20260507143511 54 344 5.0 7.0 0.00 0.00 0.00 63 1013.3
20260507143008 54 319 3.0 3.0 0.00 0.00 0.00 65 1013.4
20260507142503 53 315 3.0 3.0 0.00 0.00 0.00 65 1013.4
20260507142000 53 178 1.0 2.0 0.00 0.00 0.00 65 1013.5
20260507141456 52 239 1.0 2.0 0.00 0.00 0.00 69 1013.5
20260507140953 52 239 1.0 2.0 0.00 0.00 0.00 69 1013.8
20260507140450 51 357 3.0 3.0 0.00 0.00 0.00 69 1013.6
20260507135947 52 292 1.0 1.0 0.00 0.00 0.00 69 1013.6
20260507135444 0 0.0 0.0 0.00 0.00 0.00 1013.8
20260507134941 0 0.0 0.0 0.00 0.00 0.00 1013.7
20260507134438 0 0.0 0.0 0.00 0.00 0.00 1013.7
20260507133934 0 0.0 0.0 0.00 0.00 0.00 1013.9
20260507133430 0 0.0 0.0 0.00 0.00 0.00 1013.9
20260507132929 50 210 1.0 1.0 0.00 0.00 0.00 76 1014.1
20260507132424 50 210 1.0 1.0 0.00 0.00 0.00 76 1014.1
20260507131921 50 236 0.0 1.0 0.00 0.00 0.00 79 1014.1
20260507131418 50 236 0.0 1.0 0.00 0.00 0.00 79 1014.2
20260507130915 49 294 0.0 0.0 0.00 0.00 0.00 78 1014.3
20260507130412 0 0.0 0.0 0.00 0.00 0.00 1014.0
20260507125911 0 0.0 0.0 0.00 0.00 0.00 1014.1
20260507125408 0 0.0 0.0 0.00 0.00 0.00 1014.1
20260507124906 49 115 1.0 1.0 0.00 0.00 0.00 77 1014.0
20260507124401 49 10 2.0 2.0 0.00 0.00 0.00 77 1014.1
20260507123900 49 282 0.0 1.0 0.00 0.00 0.00 77 1014.1
20260507123357 49 282 0.0 1.0 0.00 0.00 0.00 77 1013.8
20260507122853 49 306 0.0 0.0 0.00 0.00 0.00 76 1014.1
20260507122349 49 349 1.0 1.0 0.00 0.00 0.00 76 1013.9
20260507121845 49 217 2.0 2.0 0.00 0.00 0.00 77 1013.7
20260507121341 49 7 2.0 2.0 0.00 0.00 0.00 77 1013.7
20260507120837 49 313 1.0 2.0 0.00 0.00 0.00 77 1013.9
20260507120334 49 15 2.0 3.0 0.00 0.00 0.00 82 1013.9
20260507115830 49 73 0.0 0.0 0.00 0.00 0.00 80 1013.8
20260507115326 49 38 2.0 3.0 0.00 0.00 0.00 81 1014.1
20260507114822 49 25 2.0 3.0 0.00 0.00 0.00 83 1013.6
20260507114319 49 248 0.0 1.0 0.00 0.00 0.00 83 1013.5
20260507113817 49 155 1.0 1.0 0.00 0.00 0.00 83 1013.6
20260507113313 49 88 1.0 1.0 0.00 0.00 0.00 82 1013.6
20260507112811 49 61 0.0 1.0 0.00 0.00 0.00 82 1013.5
20260507112308 49 340 1.0 1.0 0.00 0.00 0.00 81 1013.6
20260507111806 49 96 0.0 0.0 0.00 0.00 0.00 82 1013.5
20260507111302 49 96 0.0 0.0 0.00 0.00 0.00 82 1013.5
20260507110758 49 309 0.0 1.0 0.00 0.00 0.00 82 1013.4
20260507110255 49 327 1.0 4.0 0.00 0.00 0.00 80 1013.2
20260507105752 49 57 3.0 3.0 0.00 0.00 0.00 81 1013.2
20260507105247 49 57 3.0 3.0 0.00 0.00 0.00 81 1013.3
20260507104745 49 359 0.0 0.0 0.00 0.00 0.00 82 1013.0
20260507104242 49 316 6.0 7.0 0.00 0.00 0.00 81 1013.4
20260507103737 48 1 0.0 0.0 0.00 0.00 0.00 83 1013.4
20260507103234 48 101 0.0 0.0 0.00 0.00 0.00 83 1013.0
20260507102730 48 31 0.0 0.0 0.00 0.00 0.00 83 1012.9
20260507102227 48 103 0.0 0.0 0.00 0.00 0.00 83 1012.9
20260507101723 49 95 0.0 0.0 0.00 0.00 0.00 83 1012.9
20260507101218 49 87 1.0 1.0 0.00 0.00 0.00 82 1012.9
20260507100716 0 0.0 0.0 0.00 0.00 0.00 1012.7
20260507100214 0 0.0 0.0 0.00 0.00 0.00 1013.0
20260507095712 0 0.0 0.0 0.00 0.00 0.00 1012.6
20260507095208 0 0.0 0.0 0.00 0.00 0.00 1012.4
20260507094705 0 0.0 0.0 0.00 0.00 0.00 1012.5
20260507094202 49 3 3.0 3.0 0.00 0.00 0.00 80 1012.9
20260507093659 49 3 3.0 3.0 0.00 0.00 0.00 80 1012.9
20260507093158 49 215 1.0 1.0 0.00 0.00 0.00 80 1012.7
20260507092654 49 83 4.0 6.0 0.00 0.00 0.00 79 1012.9
20260507092151 49 88 1.0 1.0 0.00 0.00 0.00 79 1012.6
20260507091647 49 338 2.0 3.0 0.00 0.00 0.00 81 1012.6
20260507091144 49 264 0.0 0.0 0.00 0.00 0.00 81 1012.6
20260507090639 49 148 0.0 1.0 0.00 0.00 0.00 81 1012.4
20260507090137 49 210 0.0 6.0 0.00 0.00 0.00 81 1012.5
20260507085634 49 327 0.0 1.0 0.00 0.00 0.00 81 1012.6
20260507085130 49 213 1.0 2.0 0.00 0.00 0.00 82 1012.3
20260507084627 49 254 2.0 6.0 0.00 0.00 0.00 80 1012.5
20260507084124 49 318 1.0 1.0 0.00 0.00 0.00 79 1012.6
20260507083620 49 358 2.0 4.0 0.00 0.00 0.00 79 1012.5
20260507083118 49 181 0.0 1.0 0.00 0.00 0.00 80 1012.5
20260507082613 49 157 0.0 1.0 0.00 0.00 0.00 81 1012.5
20260507082104 49 325 3.0 3.0 0.00 0.00 0.00 80 1012.6
20260507081601 0 0.0 0.0 0.00 0.00 0.00 1012.9
20260507081058 0 0.0 0.0 0.00 0.00 0.00 1012.6
20260507080554 50 323 1.0 2.0 0.00 0.00 0.00 79 1012.7
20260507080050 50 323 1.0 2.0 0.00 0.00 0.00 79 1013.0
20260507075545 50 72 2.0 3.0 0.00 0.00 0.00 78 1013.0
20260507075042 50 288 2.0 2.0 0.00 0.00 0.00 78 1012.9
20260507074539 50 339 1.0 1.0 0.00 0.00 0.00 80 1012.5
20260507074037 50 144 0.0 0.0 0.00 0.00 0.00 80 1012.4
20260507073533 50 99 1.0 1.0 0.00 0.00 0.00 81 1012.5
20260507073029 49 219 2.0 2.0 0.00 0.00 0.00 81 1012.5
20260507072527 49 117 0.0 0.0 0.00 0.00 0.00 82 1012.3
20260507072024 50 32 0.0 0.0 0.00 0.00 0.00 82 1012.4
20260507071521 50 101 1.0 1.0 0.00 0.00 0.00 80 1012.4
20260507071018 50 68 0.0 0.0 0.00 0.00 0.00 81 1012.4
20260507070515 49 7 1.0 2.0 0.00 0.00 0.00 81 1012.7
20260507070013 50 317 0.0 0.0 0.00 0.00 0.00 83 1012.4
20260507065508 50 317 0.0 0.0 0.00 0.00 0.00 83 1012.5
20260507065006 49 48 2.0 2.0 0.00 0.00 0.00 83 1012.5
20260507064503 49 286 0.0 0.0 0.00 0.00 0.00 83 1012.7
20260507064001 49 272 2.0 3.0 0.00 0.00 0.00 85 1013.0
20260507063458 49 39 0.0 1.0 0.00 0.00 0.00 86 1012.5
20260507062955 49 16 3.0 4.0 0.00 0.00 0.00 86 1012.9
20260507062452 49 32 1.0 4.0 0.00 0.00 0.00 86 1012.7
20260507061949 49 318 4.0 7.0 0.00 0.00 0.00 86 1012.9
20260507061447 50 29 3.0 6.0 0.00 0.00 0.00 86 1013.0
20260507060946 50 5 4.0 6.0 0.00 0.00 0.00 86 1013.0
20260507060442 50 349 1.0 3.0 0.00 0.00 0.00 86 1013.1
20260507055939 50 51 3.0 4.0 0.00 0.00 0.00 87 1013.3
20260507055434 50 18 2.0 3.0 0.00 0.00 0.00 87 1013.0
20260507054931 51 18 0.0 1.0 0.00 0.00 0.00 87 1013.3
20260507054427 51 5 1.0 2.0 0.00 0.00 0.00 87 1013.3
20260507053924 51 21 2.0 2.0 0.00 0.00 0.00 87 1013.4
20260507053422 51 61 3.0 4.0 0.00 0.00 0.00 86 1013.1
20260507052921 51 37 2.0 3.0 0.00 0.00 0.00 86 1013.3
20260507052418 51 21 3.0 4.0 0.00 0.00 0.00 85 1013.0
20260507051914 51 21 3.0 4.0 0.00 0.00 0.00 85 1012.7
20260507051412 52 358 4.0 7.0 0.00 0.00 0.00 86 1013.0
20260507050910 52 358 4.0 7.0 0.00 0.00 0.00 86 1013.0
20260507050406 52 348 5.0 8.0 0.00 0.00 0.00 85 1012.6
20260507045903 52 28 5.0 8.0 0.00 0.00 0.00 87 1012.5
20260507045359 52 353 1.0 2.0 0.00 0.00 0.00 87 1012.6
20260507044856 52 47 3.0 7.0 0.00 0.00 0.00 86 1012.4
20260507044352 53 64 3.0 9.0 0.00 0.00 0.00 86 1012.5
20260507043848 53 9 2.0 3.0 0.00 0.00 0.00 86 1012.7
20260507043345 53 31 5.0 7.0 0.00 0.00 0.00 87 1012.9
20260507042841 53 318 4.0 10.0 0.00 0.00 0.00 86 1012.7
20260507042337 53 352 4.0 4.0 0.00 0.00 0.00 87 1012.3
20260507041829 54 351 2.0 2.0 0.00 0.00 0.00 87 1012.3
20260507041326 54 23 2.0 3.0 0.00 0.00 0.00 87 1012.0
20260507040823 54 335 4.0 6.0 0.00 0.00 0.00 86 1012.2
20260507040319 54 36 4.0 6.0 0.00 0.00 0.00 87 1011.5
20260507035815 54 47 2.0 3.0 0.00 0.00 0.00 86 1011.9
20260507035310 54 341 2.0 3.0 0.00 0.00 0.00 86 1012.7
20260507034809 55 334 4.0 7.0 0.00 0.00 0.00 86 1012.7
20260507034305 55 350 2.0 2.0 0.00 0.00 0.00 86 1012.2
20260507033803 55 329 2.0 2.0 0.00 0.00 0.00 85 1011.9
20260507033301 55 349 2.0 4.0 0.00 0.00 0.00 86 1012.3
20260507032757 55 308 2.0 2.0 0.00 0.00 0.00 86 1012.3
20260507032253 55 353 3.0 3.0 0.00 0.00 0.00 86 1012.5
20260507031749 55 321 0.0 2.0 0.00 0.00 0.00 85 1012.5
20260507031247 55 79 2.0 3.0 0.00 0.00 0.00 85 1012.5
20260507030743 56 17 2.0 7.0 0.00 0.00 0.00 85 1012.7
20260507030241 56 312 8.0 11.0 0.00 0.00 0.00 84 1013.0
20260507025738 55 331 4.0 6.0 0.00 0.00 0.00 86 1013.0
20260507025235 55 323 2.0 2.0 0.00 0.00 0.00 87 1011.8
20260507024733 55 294 2.0 3.0 0.00 0.00 0.00 86 1011.8
20260507024230 56 332 1.0 2.0 0.00 0.00 0.00 86 1011.7
20260507023725 56 116 0.0 2.0 0.00 0.00 0.00 86 1012.0
20260507023222 56 88 3.0 4.0 0.00 0.00 0.00 85 1012.2
20260507022720 56 310 4.0 6.0 0.00 0.00 0.00 85 1012.5
20260507022215 57 355 2.0 3.0 0.00 0.00 0.00 86 1012.6
20260507021712 57 314 3.0 4.0 0.00 0.00 0.00 86 1012.6
20260507021207 57 358 7.0 9.0 0.00 0.00 0.00 87 1012.4
20260507020706 57 10 5.0 6.0 0.00 0.00 0.00 87 1012.0
20260507020202 57 318 1.0 6.0 0.00 0.00 0.00 86 1011.8
20260507015701 57 113 0.0 1.0 0.00 0.00 0.00 86 1011.4
20260507015158 57 49 0.0 2.0 0.00 0.00 0.00 86 1011.2
20260507014654 57 185 0.0 0.0 0.00 0.00 0.00 86 1011.6
20260507014150 58 208 1.0 4.0 0.00 0.00 0.00 86 1011.8
20260507013647 58 339 1.0 6.0 0.00 0.00 0.00 85 1011.8
20260507013144 58 317 3.0 4.0 0.00 0.00 0.00 85 1012.0
20260507012642 58 312 3.0 4.0 0.00 0.00 0.00 85 1011.7
20260507012136 57 352 2.0 2.0 0.00 0.00 0.00 90 1011.7
20260507011635 57 315 1.0 3.0 0.00 0.00 0.00 92 1011.5
20260507011131 57 202 0.0 0.0 0.00 0.00 0.00 92 1010.7
20260507010625 58 138 0.0 1.0 0.00 0.00 0.00 92 1011.0
20260507010121 58 132 1.0 1.0 0.00 0.00 0.00 92 1011.3
20260507005619 58 169 0.0 1.0 0.00 0.00 0.00 91 1011.3
20260507005115 58 198 1.0 2.0 0.00 0.00 0.00 90 1011.4
20260507004612 59 142 0.0 0.0 0.00 0.00 0.00 89 1011.3
20260507004109 59 222 1.0 1.0 0.00 0.00 0.00 86 1011.6
20260507003606 59 171 0.0 0.0 0.00 0.00 0.00 87 1011.7
20260507003100 60 39 0.0 1.0 0.00 0.00 0.00 85 1011.7
20260507002558 59 83 0.0 0.0 0.00 0.00 0.00 86 1011.7
20260507002053 60 105 0.0 0.0 0.00 0.00 0.00 86 1011.6
20260507001550 60 10 0.0 0.0 0.00 0.00 0.00 83 1011.5
20260507001048 60 336 0.0 0.0 0.00 0.00 0.00 84 1011.4
20260507000543 60 336 0.0 0.0 0.00 0.00 0.00 84 1011.4
20260507000039 60 316 0.0 2.0 0.00 0.00 0.00 83 1011.6
20260506235537 60 321 2.0 2.0 0.00 0.00 0.00 82 1011.4
20260506235032 60 35 3.0 4.0 0.00 0.00 0.00 83 1011.3
20260506234530 0 0.0 0.0 0.00 0.00 0.00 1011.4
20260506234027 0 0.0 0.0 0.00 0.00 0.00 1011.5
20260506233524 61 351 4.0 4.0 0.00 0.00 0.00 84 1011.2
20260506233021 61 351 4.0 4.0 0.00 0.00 0.00 84 1011.3
20260506232517 61 68 2.0 2.0 0.00 0.00 0.00 87 1011.3
20260506232012 61 268 2.0 3.0 0.00 0.00 0.00 85 1011.3
20260506231510 61 316 0.0 0.0 0.00 0.00 0.00 84 1011.2
20260506231008 62 41 4.0 4.0 0.00 0.00 0.00 82 1010.5
20260506230504 62 334 2.0 2.0 0.00 0.00 0.00 80 1010.8
20260506230001 62 333 4.0 4.0 0.00 0.00 0.00 79 1011.0
20260506225458 62 333 4.0 4.0 0.00 0.00 0.00 79 1010.5
20260506224954 63 9 5.0 6.0 0.00 0.00 0.00 79 1010.7
20260506224452 63 0 5.0 6.0 0.00 0.00 0.00 79 1010.6
20260506223948 63 7 4.0 6.0 0.00 0.00 0.00 79 1010.7
20260506223444 63 352 5.0 9.0 0.00 0.00 0.00 79 1010.8
20260506222941 63 330 5.0 6.0 0.00 0.00 0.00 79 1010.5
20260506222438 64 332 6.0 7.0 0.00 0.00 0.00 78 1010.4
20260506221934 64 331 6.0 7.0 0.00 0.00 0.00 77 1010.3
20260506221431 65 276 0.0 0.0 0.00 0.00 0.00 75 1010.2
20260506220930 65 150 1.0 2.0 0.00 0.00 0.00 75 1010.1